Regional Weather Roundup
Issued by NWS

Home | Current Version | Previous Version | Text Only | Print | Product List | Glossary On
Versions: 1 2 3 4 5 6 7 8 9 10 11 12 13 14 15 16 17 18 19 20 21 22 23 24 25 26 27 28 29 30 31 32 33 34 35 36 37 38 39 40 41 42 43 44 45 46 47 48 49 50
000
ASUS45 KBOU 092207
RWRCO

WEATHER ROUNDUP FOR COLORADO
NATIONAL WEATHER SERVICE DENVER/BOULDER CO
300 PM MST TUE FEB 09 2016

NOTE: "FAIR" INDICATES FEW OR NO CLOUDS BELOW 12000 FEET WITH NO
SIGNIFICANT WEATHER AND/OR OBSTRUCTIONS TO VISIBILITY.

COZ001>005-013-030-031-092300-
...NORTHWEST COLORADO...

CITY           SKY/WX    TMP DP  RH WIND       PRES   REMARKS
CRAIG          SUNNY     25  19  78 SW3       30.47F
HAYDEN         SUNNY     25  16  68 CALM      30.46S
MEEKER         SUNNY     37  20  50 CALM      30.45S
MOUNT WERNER   NOT AVBL
STEAMBOAT SPGS SUNNY     28  16  60 CALM      30.46S
WALDEN         SUNNY     23  16  74 CALM      30.44S
$$

COZ006>008-011-092300-
...WEST CENTRAL VALLEYS...

CITY           SKY/WX    TMP DP  RH WIND       PRES   REMARKS
GRAND JUNCTION SUNNY     40  25  55 NE3       30.45F
MONTROSE       SUNNY     43  23  45 N3        30.45F
EAGLE          SUNNY     39  19  45 CALM      30.49F
RIFLE          SUNNY     42  20  41 CALM      30.44F
DELTA          SUNNY     47  26  44 CALM      30.45S
NUCLA          SUNNY     45  25  45 CALM      30.45S
$$

COZ017>023-064>068-092300-
...SOUTHWEST COLORADO...

CITY           SKY/WX    TMP DP  RH WIND       PRES   REMARKS
DURANGO        SUNNY     42  18  37 NE3       30.37F
CORTEZ         SUNNY     47  29  49 S5        30.37S
PAGOSA SPRINGS SUNNY     49  15  25 S3        30.38S
TELLURIDE      SUNNY     47  12  24 W10G23    30.45S
WOLF CREEK PAS SUNNY     34   0  23 NE13G20   30.52F WCI  25
$$

COZ009-010-012-014-032>034-037-058>063-092300-
...CENTRAL COLORADO...

CITY           SKY/WX    TMP DP  RH WIND       PRES   REMARKS
ASPEN          SUNNY     41  18  39 N6        30.43F
BUENA VISTA    SUNNY     51  10  19 NW14G24   30.36R
COPPER MTN     SUNNY     34   9  35 NW16G24   30.51R WCI  23
BERTHOUD PASS  FAIR      23  12  63 N18G33    30.48R WCI   9
COTTONWOOD PAS SUNNY     46  -8  10 CALM      30.42R
GUNNISON       CLOUDY    16   9  73 SE3       30.52S
KREMMLING      CLOUDY    21  10  63 CALM      30.51F
LEADVILLE      SUNNY     40   5  23 N20G28    30.43S
MONARCH PASS   SUNNY     34   7  32 CALM      30.59S
SALIDA         NOT AVBL
SUNLIGHT       SUNNY     34  19  55 NW3       30.53S
WILKERSON PASS SUNNY     36   1  23 N12G17    30.47R
$$

COZ069>075-092300-
...SAN LUIS VALLEY/SANGRE DE CRISTO MOUNTAINS...

CITY           SKY/WX    TMP DP  RH WIND       PRES   REMARKS
ALAMOSA        SUNNY     45  16  31 CALM      30.37F
LA VETA PASS   SUNNY     43  14  31 SW6       30.43R
SAGUACHE       SUNNY     43  19  39 S5        30.40S
$$

COZ035-036-038>040-092300-
...NORTHERN COLORADO FRONT RANGE...

CITY           SKY/WX    TMP DP  RH WIND       PRES   REMARKS
DENVER INTL AP MOSUNNY   53  20  27 N6        30.28S
DMNS CITY PARK   N/A     54  15  21 E6        30.28R
AURORA         NOT AVBL
FRONT RANGE AP MOSUNNY   50  18  27 MISG      30.29S
ERIE MUNI ARPT SUNNY     55  16  22 E6        30.27S
BOULDER MUN AP SUNNY     55  23  28 CALM      30.27S
CENTENNIAL     MOSUNNY   50  18  28 E7        30.29S
BROOMFIELD     MOSUNNY   57  16  19 SE6       30.29S
FORT COLLINS   SUNNY     48  25  40 S7        30.27F
LONGMONT       SUNNY     57  22  25 CALM      30.28F
$$

COZ041-046-047-076>085-087-088-092300-
...PIKES PEAK/PALMER DIVIDE AND SOUTHERN FOOTHILLS...

CITY           SKY/WX    TMP DP  RH WIND       PRES   REMARKS
COLO. SPRINGS  SUNNY     45  16  31 S3        30.34R
A. F. ACADEMY  SUNNY     46  17  31 S8        30.32R
SCHRIEVER AFB  NOT AVBL
ELLICOTT       NOT AVBL
FALCON         NOT AVBL
FORT CARSON    NOT AVBL
LIMON          SUNNY     42  27  55 W6        30.29S
MONUMENT HILL  SUNNY     43  12  28 CALM      30.34S
TRINIDAD       SUNNY     59  11  15 NE9       30.30R
$$

COZ042>045-048>051-090-091-092300-
...NORTHEAST COLORADO...

CITY           SKY/WX    TMP DP  RH WIND       PRES   REMARKS
GREELEY ARPT   SUNNY     45  28  53 S9        30.27S
AKRON          SUNNY     43  31  62 W12       30.25S
BURLINGTON     SUNNY     45  30  55 NW10      30.25S
WRAY           CLOUDY    48  31  50 NW14      30.23S
STERLING       SUNNY     48  32  53 NW13      30.23F
HOLYOKE        CLOUDY    46  32  57 W9        30.21S
FORT MORGAN    SUNNY     48  28  46 NW5       30.27S
$$

COZ086-089-092>099-092300-
...SOUTHEAST COLORADO...

CITY           SKY/WX    TMP DP  RH WIND       PRES   REMARKS
PUEBLO         SUNNY     58  21  24 SE12      30.29S
LA JUNTA       SUNNY     58  24  27 N14       30.29S
LAMAR          SUNNY     59  27  29 N17       30.26S
SPRINGFIELD      N/A     57  25  29 N16       30.29R
$$



USA.gov is the U.S. government's official web portal to all federal, state and local government web resources and services.